Temperature
9 10 10 10 10 10 10 10 10 10 10 10 10 10 10 10 10 10 10 10 10 11 11 11 11 11 11 11 11 11 10 10 10 10 10 10 10 10 10 10 10 10 10
9 9 9 9 9 9 10 10 10 10 10 10 10 10 10 10 10 10 10 10 10 10 10 10 10 10 10 10 10 10 10 10 10 10 10 10 10 10 10 10 10 10 10
8 9 9 9 9 9 9 9 9 9 9 9 9 9 9 9 9 9 9 10 10 10 10 10 10 10 10 10 10 10 10 10 10 10 10 10 10 10 10 10 10 10 10
8 8 8 8 8 9 8 9 9 9 9 9 9 9 9 9 9 9 9 9 9 9 9 9 9 9 9 9 9 9 9 9 9 9 9 9 9 9 9 9 9 9 9
7 7 8 8 8 8 8 8 8 8 8 9 9 8 8 8 8 8 8 8 9 9 9 9 9 9 9 9 9 9 9 9 9 9 9 9 9 9 9 9 9 9 9
6 7 7 7 7 7 7 8 8 8 8 8 8 8 8 8 8 8 8 8 8 8 8 8 8 9 9 9 8 8 8 9 9 9 9 9 9 9 9 9 9 9 9
6 6 6 6 7 7 7 7 7 7 7 7 7 7 7 7 7 7 7 7 7 8 8 8 8 8 8 8 8 8 8 8 8 8 8 8 8 8 8 8 8 8 8
5 6 6 6 6 6 7 7 7 7 7 7 7 6 6 7 7 7 7 7 7 7 7 7 7 8 8 8 8 8 8 8 8 8 8 8 8 8 8 8 8 8 8
5 5 5 5 5 6 6 6 6 6 6 6 6 6 6 6 6 6 6 6 6 7 7 7 7 7 7 7 7 7 7 7 7 7 8 8 8 7 8 8 7 7 7
4 4 5 5 5 5 5 5 5 6 6 6 6 6 6 6 5 5 5 6 6 6 6 6 6 6 7 7 7 7 7 7 7 7 7 7 7 7 7 7 7 7 7
3 4 4 4 4 4 5 5 5 5 5 5 5 5 5 5 5 5 5 5 5 5 6 6 6 6 6 6 6 6 6 6 6 7 7 7 7 7 7 7 7 7 7
3 3 3 4 4 4 4 4 5 5 4 5 5 5 5 5 5 5 5 5 5 5 5 5 5 6 6 6 6 6 6 6 6 6 6 6 6 6 6 7 7 7 6
2 3 3 3 3 3 3 4 4 4 4 4 4 4 4 5 5 5 5 4 4 4 5 5 5 5 5 5 5 5 6 6 6 6 6 6 6 6 6 6 6 6 6
2 2 2 2 3 3 3 3 3 3 3 3 4 4 4 4 4 4 5 4 4 4 4 4 5 5 5 5 5 5 5 5 5 5 5 5 5 5 5 5 5 6 6
1 2 2 2 2 2 2 2 3 3 3 3 3 3 3 4 4 4 4 4 4 3 3 4 4 4 4 4 4 4 4 5 5 5 5 5 5 5 5 5 5 5 5
1 1 1 1 2 2 2 2 2 2 2 2 2 3 3 3 3 3 3 3 4 4 3 3 4 4 4 4 4 4 4 4 4 4 4 4 4 4 4 4 4 4 4
1 1 1 1 1 1 1 1 1 2 2 2 2 2 2 3 3 3 3 3 3 3 3 3 3 3 3 3 3 3 3 3 4 4 4 4 3 3 4 4 4 4 4
0 0 0 1 1 1 1 1 1 1 1 1 1 1 2 2 2 2 2 2 2 2 3 3 3 3 3 3 3 3 3 3 3 3 3 3 3 3 3 3 3 3 3
-0 -0 0 0 0 0 1 1 1 1 1 1 1 1 1 1 1 1 2 2 2 2 2 2 2 2 2 2 2 2 2 3 2 2 2 2 2 2 2 2 2 2 2
-1 -0 -0 -0 -0 0 0 0 0 0 0 0 1 1 1 1 1 1 1 1 1 1 1 2 2 2 2 2 2 2 2 2 2 2 2 2 2 2 2 2 2 2 2
-1 -1 -1 -1 -1 -0 -0 -0 -0 -0 -0 -0 -0 0 0 0 0 0 1 1 1 1 1 1 1 1 1 1 1 1 1 1 1 1 1 1 1 1 1 1 1 1 1
-2 -2 -1 -1 -1 -1 -1 -1 -1 -1 -1 -0 -0 -0 -0 -0 -0 -0 -0 0 0 0 0 0 0 0 1 1 1 1 1 0 0 1 1 1 1 1 1 1 1 1 1
-2 -2 -2 -2 -2 -1 -1 -1 -1 -1 -1 -1 -1 -1 -1 -1 -1 -1 -1 -1 -0 -0 -0 -0 0 0 0 0 0 0 0 0 0 0 0 0 0 0 0 0 0 0 0
-3 -3 -2 -2 -2 -2 -2 -2 -2 -2 -2 -2 -2 -1 -1 -1 -1 -1 -1 -1 -1 -1 -1 -1 -1 -0 -0 -0 -0 -0 -0 -0 -0 -1 -1 -1 -0 -0 -0 -0 -0 -0 -0
-3 -3 -3 -3 -3 -3 -3 -3 -2 -2 -2 -2 -2 -2 -2 -2 -2 -2 -2 -2 -1 -1 -1 -1 -1 -1 -1 -1 -1 -1 -1 -1 -1 -1 -1 -1 -1 -1 -1 -1 -1 -1 -1
-4 -4 -4 -3 -3 -3 -3 -3 -3 -3 -3 -3 -3 -3 -3 -3 -3 -3 -3 -2 -2 -2 -2 -2 -2 -2 -2 -2 -2 -2 -2 -2 -2 -2 -2 -2 -2 -2 -2 -2 -2 -2 -2
Wind_Speed
2 2 2 3 3 3 3 2 2 2 2 3 3 4 4 6 7 7 7 9 8 8 8 8 8 8 8 8 7 8 8 8 8 8 8 8 7 7 7 7 8 8 8
3 2 2 2 2 2 2 2 2 2 2 3 3 4 5 6 7 7 8 8 9 8 8 8 8 7 8 8 8 7 7 7 7 6 6 6 6 6 5 6 6 6 6
4 3 2 2 2 2 2 3 2 3 2 3 2 3 4 4 6 7 7 8 8 8 8 7 7 6 6 7 7 6 6 6 6 5 5 5 5 5 5 4 4 4 4
3 2 2 2 2 2 1 2 2 2 2 2 2 2 3 3 5 6 7 7 7 7 7 6 7 6 6 6 6 5 5 4 4 4 4 4 4 4 4 4 3 3 3
3 2 2 2 2 2 2 2 2 2 2 2 2 2 2 2 4 5 5 7 7 7 7 6 7 6 6 5 5 4 4 4 3 2 3 3 3 3 3 2 2 2 2
2 2 2 3 3 2 2 2 3 3 2 2 2 2 2 2 4 4 4 6 6 7 7 6 5 5 5 5 4 4 3 3 3 2 2 2 2 2 2 1 1 0 1
2 2 2 2 2 2 2 3 3 3 2 2 3 2 2 2 3 3 4 4 5 6 6 6 5 5 4 4 3 3 2 2 2 1 1 1 2 1 2 2 1 1 1
1 1 3 2 2 2 2 3 3 3 2 2 3 3 1 1 1 2 2 3 3 4 5 4 5 5 4 4 3 3 2 2 1 1 1 1 1 1 2 2 1 1 1
0 1 3 3 2 2 2 3 3 3 4 3 3 2 3 2 1 1 1 2 2 2 3 3 4 5 5 4 3 2 2 1 2 1 1 0 2 3 3 3 2 1 1
0 1 2 3 3 2 3 3 3 2 3 4 2 1 2 3 2 1 1 1 2 2 2 2 3 4 4 4 3 1 1 1 1 1 2 2 2 2 3 3 3 3 3
1 1 2 2 3 2 3 3 3 2 2 3 3 1 1 1 1 2 2 2 1 2 1 2 3 3 4 4 3 2 1 0 1 1 2 2 3 3 4 5 5 4 3
2 2 2 2 2 2 3 3 3 3 2 1 2 2 2 2 3 2 2 3 2 2 2 1 2 3 4 4 3 2 2 1 1 1 2 2 3 4 5 5 5 5 4
2 3 2 2 2 2 2 2 3 4 3 2 2 2 2 1 1 1 2 2 1 1 1 1 1 2 3 3 3 3 3 2 2 2 2 3 3 4 4 5 5 4 4
3 3 3 3 3 3 3 2 2 3 3 3 3 3 2 2 1 2 2 3 2 1 2 2 1 2 2 3 3 3 3 3 3 3 2 3 3 3 4 4 5 5 4
2 4 4 4 3 3 3 3 3 3 3 3 3 2 2 2 1 1 1 3 3 3 3 3 2 2 2 3 3 4 4 4 4 4 4 4 4 4 5 4 4 4 4
3 3 4 4 4 3 3 4 3 3 4 3 3 3 2 2 2 2 1 2 2 3 3 2 2 2 3 4 4 4 4 5 5 5 5 5 5 5 5 5 5 4 5
3 4 5 5 5 4 4 4 4 4 4 4 3 4 3 3 2 2 2 2 2 2 3 2 1 2 2 3 3 4 5 5 5 5 6 6 6 6 6 5 5 5 6
3 4 4 5 5 5 5 5 5 5 5 5 5 4 4 3 3 3 3 3 3 2 2 3 2 2 3 4 3 3 4 5 5 6 6 6 6 7 6 6 6 6 6
2 3 4 5 5 5 5 5 5 5 5 6 6 6 5 5 4 3 3 4 3 2 2 3 3 2 2 2 2 2 3 3 4 5 6 6 6 7 7 7 7 8 8
2 2 3 4 5 5 5 6 5 5 4 5 5 5 6 6 5 5 4 4 3 3 2 3 3 2 2 2 2 3 2 2 3 4 5 6 6 6 6 7 7 8 8
2 2 3 3 4 4 5 6 5 5 5 5 5 5 5 6 6 6 5 4 4 4 3 3 4 3 3 3 4 3 3 2 3 2 2 3 4 4 6 7 8 8 9
1 2 2 3 4 4 6 7 6 5 5 6 5 5 5 5 6 7 8 7 6 6 5 5 4 5 5 4 3 3 3 2 4 2 2 4 4 4 5 6 8 8 8
1 2 2 3 3 4 7 8 8 5 5 5 5 5 4 4 4 4 5 6 6 7 8 6 6 7 6 6 5 5 5 4 5 3 3 4 3 4 5 7 8 7 8
1 2 3 3 3 4 7 8 8 5 4 5 5 5 5 5 5 4 4 4 4 5 6 5 6 6 5 5 6 6 5 3 3 3 3 4 3 4 4 6 8 8 8
2 2 2 2 3 3 5 7 8 4 4 5 5 4 5 5 6 6 4 4 4 4 6 6 7 7 7 8 6 3 3 3 3 3 2 2 2 3 3 3 6 7 6
2 2 2 2 2 2 3 5 6 4 4 4 4 5 6 6 7 7 5 5 5 5 4 4 4 5 5 6 7 6 5 5 3 3 2 2 2 1 2 2 2 3 5
Wind_Direction
44 38 64 67 60 72 92 81 62 73 68 69 77 89 86 93 98 96 100 105 111 114 113 108 103 101 105 113 109 105 104 98 97 93 96 97 98 96 89 85 80 76 69
34 37 64 65 61 61 91 91 62 73 87 77 73 79 84 94 104 107 108 104 103 107 112 111 107 104 103 103 106 106 105 103 100 99 92 99 98 97 96 92 83 76 72
34 32 70 80 61 72 87 91 75 64 76 82 80 74 79 92 100 108 113 113 111 106 108 108 106 104 104 103 103 105 104 109 106 105 93 100 104 97 96 98 91 85 73
45 34 64 82 58 80 83 118 122 108 102 92 89 78 76 84 92 100 109 113 116 115 111 103 100 100 103 104 104 105 95 102 121 116 114 103 110 105 96 89 89 85 71
57 43 57 59 63 85 100 134 132 122 123 107 106 94 86 87 86 93 98 104 109 113 115 112 103 96 96 99 98 101 102 97 103 124 133 125 124 128 111 98 85 78 67
51 60 55 64 67 109 119 139 141 122 134 134 116 91 91 96 89 88 93 98 102 104 106 111 108 105 101 92 88 86 89 91 95 116 158 176 151 157 149 132 102 72 338
26 72 78 84 92 131 143 139 135 132 128 131 114 100 74 89 100 99 98 96 94 102 104 102 107 112 112 105 88 76 71 78 75 84 146 180 184 190 199 206 206 235 290
6 112 111 118 112 139 133 129 136 152 155 145 139 141 131 113 77 100 98 108 104 106 105 109 112 118 118 119 99 68 53 61 58 47 189 193 194 296 246 245 250 253 266
334 121 127 122 125 142 154 151 150 157 169 168 155 149 153 184 163 135 130 123 129 121 107 120 127 132 127 123 120 85 55 55 54 29 29 268 251 270 287 265 254 256 270
269 135 140 136 139 144 161 166 148 168 168 173 184 198 163 141 148 155 190 171 165 162 157 132 132 131 133 130 128 115 92 52 35 14 31 13 351 307 302 281 268 264 268
236 176 149 138 145 150 159 154 151 163 173 178 170 160 142 144 142 168 190 195 200 205 189 163 140 136 137 135 134 138 136 162 328 336 346 350 347 339 311 294 268 269 270
196 170 156 147 148 149 162 164 164 176 186 191 165 153 153 166 172 170 192 193 202 225 210 173 152 142 141 145 156 160 157 190 256 284 310 318 328 338 338 327 295 272 273
224 186 162 160 166 164 163 167 176 187 188 192 183 176 174 184 177 164 172 189 205 244 220 207 175 152 154 154 167 181 184 200 231 257 288 303 311 326 335 333 330 302 290
222 181 169 181 185 170 178 175 184 194 189 195 197 179 175 195 196 168 174 171 190 227 235 223 228 186 179 175 193 199 205 215 226 239 264 285 295 301 308 314 317 309 293
207 185 180 191 191 183 185 184 193 195 198 201 197 183 186 196 189 188 182 175 180 214 232 210 199 204 197 200 211 211 214 230 232 233 245 260 273 280 284 288 300 309 297
199 190 195 200 200 192 197 197 201 198 201 208 199 187 192 201 193 188 195 213 200 200 228 218 220 204 200 220 228 221 221 230 230 234 244 251 259 267 269 274 281 290 299
197 202 206 205 201 197 198 203 210 201 205 217 211 200 200 188 195 197 199 216 222 195 232 252 256 205 199 204 231 227 226 224 234 237 243 253 258 259 261 264 272 279 283
201 206 210 210 208 201 198 207 210 208 207 212 210 207 208 200 201 208 205 216 224 216 209 241 249 230 220 210 215 215 228 231 235 240 242 253 258 258 257 257 264 273 277
208 207 210 211 209 203 202 210 207 211 216 213 208 208 210 201 208 212 214 217 220 228 210 213 236 245 231 215 212 228 230 237 239 242 243 248 255 258 257 258 260 266 270
211 199 212 212 210 204 205 213 210 207 223 216 212 211 212 207 206 208 220 220 217 215 203 203 222 239 233 220 203 221 243 235 245 251 250 253 256 258 262 264 267 267 270
225 206 210 219 217 212 213 211 209 211 221 218 217 215 216 217 219 221 223 216 211 213 212 212 220 241 235 214 217 218 241 250 255 241 246 252 249 251 258 262 265 268 269
233 213 212 218 226 226 229 226 222 212 214 213 214 215 218 222 226 237 240 238 227 219 217 220 231 232 233 233 227 225 233 254 261 230 244 263 230 243 249 254 262 266 271
262 243 224 213 223 234 233 226 225 214 211 214 214 214 225 225 229 222 241 252 251 247 238 229 229 234 228 223 221 222 225 239 258 244 249 262 234 244 242 252 257 265 272
291 268 249 232 222 243 242 224 220 213 214 218 217 214 212 211 224 220 218 235 241 248 248 240 231 237 238 220 217 227 231 240 275 248 228 256 255 258 256 242 248 256 264
300 285 269 246 233 248 248 232 223 204 214 224 224 220 212 210 230 233 221 226 243 256 262 256 258 258 256 246 231 216 215 222 259 259 227 231 261 282 275 255 244 247 258
295 289 284 254 229 236 253 241 228 207 217 225 224 223 227 229 233 233 220 217 233 249 252 262 270 273 259 239 232 218 211 220 242 248 218 199 246 283 278 267 242 243 260
Height
1518 1520 1522 1523 1525 1527 1528 1531 1533 1535 1537 1539 1541 1542 1544 1545 1546 1547 1548 1550 1551 1552 1553 1554 1555 1555 1556 1557 1558 1559 1559 1560 1561 1561 1562 1562 1563 1563 1563 1563 1563 1563 1563
1516 1517 1519 1521 1523 1525 1527 1529 1531 1533 1535 1537 1539 1541 1542 1544 1545 1546 1547 1549 1550 1551 1552 1553 1554 1555 1555 1556 1557 1558 1558 1559 1560 1561 1561 1562 1562 1562 1563 1563 1563 1563 1563
1513 1515 1516 1518 1520 1523 1524 1526 1529 1531 1533 1535 1537 1539 1541 1542 1543 1545 1546 1547 1548 1550 1551 1552 1553 1553 1554 1555 1556 1557 1557 1558 1559 1560 1560 1561 1561 1561 1562 1562 1562 1563 1563
1510 1512 1513 1515 1517 1519 1522 1524 1526 1528 1531 1533 1534 1537 1539 1540 1542 1543 1544 1546 1547 1548 1549 1550 1551 1552 1553 1554 1555 1555 1556 1557 1558 1558 1559 1559 1560 1560 1561 1561 1561 1561 1562
1507 1509 1510 1512 1514 1516 1519 1521 1524 1526 1528 1530 1532 1534 1537 1538 1540 1541 1543 1544 1545 1546 1547 1549 1550 1551 1552 1553 1553 1554 1555 1555 1556 1557 1557 1558 1558 1559 1559 1559 1560 1560 1560
1505 1506 1508 1510 1511 1513 1515 1518 1520 1523 1525 1527 1529 1532 1534 1536 1538 1539 1541 1542 1543 1545 1546 1546 1547 1549 1550 1551 1551 1552 1553 1554 1554 1555 1555 1556 1556 1557 1557 1558 1558 1558 1558
1502 1503 1504 1507 1508 1510 1512 1514 1517 1520 1522 1525 1527 1529 1532 1534 1536 1537 1539 1540 1541 1543 1544 1544 1545 1546 1547 1549 1550 1551 1551 1552 1552 1553 1553 1554 1554 1555 1555 1556 1556 1556 1556
1499 1500 1501 1503 1505 1507 1509 1511 1513 1516 1519 1521 1523 1526 1529 1533 1533 1535 1536 1538 1539 1540 1541 1543 1544 1544 1545 1546 1547 1548 1549 1550 1550 1551 1551 1552 1552 1552 1553 1554 1554 1554 1554
1495 1496 1498 1500 1502 1504 1505 1507 1509 1512 1515 1518 1521 1523 1525 1527 1530 1532 1534 1535 1536 1538 1539 1540 1541 1542 1543 1544 1545 1546 1546 1547 1548 1548 1549 1549 1550 1550 1550 1551 1551 1551 1551
1492 1493 1495 1497 1499 1501 1502 1504 1506 1509 1512 1514 1517 1520 1522 1523 1526 1528 1531 1532 1534 1535 1537 1538 1539 1540 1541 1542 1542 1543 1544 1544 1545 1546 1546 1546 1546 1547 1547 1548 1548 1548 1548
1489 1489 1491 1493 1496 1498 1499 1501 1503 1506 1508 1510 1513 1515 1518 1520 1522 1524 1526 1528 1531 1532 1534 1535 1536 1537 1538 1539 1540 1540 1541 1541 1542 1543 1543 1543 1543 1544 1544 1544 1545 1545 1544
1485 1486 1488 1490 1492 1494 1496 1498 1500 1502 1505 1507 1510 1512 1514 1516 1518 1520 1522 1524 1526 1529 1530 1532 1533 1534 1535 1536 1537 1537 1538 1538 1539 1539 1540 1540 1540 1540 1540 1540 1541 1541 1541
1482 1483 1484 1486 1488 1490 1493 1495 1497 1499 1502 1504 1506 1508 1511 1513 1515 1517 1518 1520 1523 1525 1527 1528 1529 1530 1531 1532 1533 1534 1535 1535 1536 1536 1536 1537 1537 1537 1536 1536 1536 1537 1537
1478 1480 1481 1483 1485 1487 1489 1491 1493 1496 1498 1500 1503 1505 1507 1510 1512 1514 1515 1517 1519 1521 1522 1523 1525 1526 1527 1528 1529 1530 1531 1532 1532 1533 1533 1533 1533 1533 1532 1532 1532 1532 1533
1475 1476 1478 1480 1481 1483 1485 1488 1490 1492 1495 1497 1499 1501 1503 1506 1508 1510 1512 1514 1516 1516 1518 1519 1520 1522 1523 1524 1525 1526 1527 1528 1528 1529 1529 1529 1529 1529 1529 1528 1528 1528 1528
1471 1472 1474 1476 1477 1479 1482 1484 1486 1489 1491 1493 1496 1498 1500 1502 1504 1506 1508 1510 1512 1513 1514 1514 1516 1517 1519 1520 1521 1522 1523 1523 1524 1524 1524 1525 1525 1525 1525 1524 1524 1524 1524
1467 1469 1470 1472 1473 1475 1478 1480 1482 1485 1487 1489 1492 1494 1496 1498 1500 1502 1504 1506 1508 1509 1510 1510 1512 1514 1515 1516 1516 1517 1518 1518 1519 1520 1520 1520 1520 1520 1520 1520 1519 1519 1519
1463 1465 1466 1468 1469 1471 1474 1476 1478 1481 1483 1485 1487 1489 1492 1494 1496 1497 1499 1501 1503 1504 1506 1506 1507 1509 1510 1511 1512 1512 1513 1514 1514 1515 1515 1515 1515 1515 1515 1515 1515 1515 1514
1459 1461 1462 1463 1465 1467 1469 1472 1474 1476 1478 1481 1483 1485 1487 1489 1491 1493 1495 1496 1498 1500 1501 1502 1502 1504 1505 1506 1507 1508 1509 1509 1510 1510 1510 1510 1510 1510 1510 1510 1510 1510 1510
1455 1456 1458 1459 1461 1463 1465 1467 1469 1472 1474 1476 1479 1481 1483 1485 1486 1488 1490 1491 1493 1495 1496 1497 1498 1499 1500 1501 1502 1502 1503 1504 1504 1505 1505 1505 1505 1505 1505 1506 1505 1505 1504
1451 1452 1453 1455 1456 1458 1460 1462 1464 1467 1469 1472 1474 1476 1478 1480 1482 1484 1485 1486 1488 1489 1491 1492 1493 1494 1495 1495 1496 1497 1498 1498 1499 1499 1499 1499 1500 1499 1500 1500 1500 1499 1499
1447 1448 1449 1451 1452 1454 1456 1458 1460 1462 1465 1467 1469 1471 1473 1475 1477 1479 1480 1482 1483 1484 1485 1486 1487 1488 1489 1490 1492 1492 1493 1493 1492 1494 1494 1493 1494 1494 1494 1494 1494 1494 1494
1444 1445 1446 1447 1448 1450 1452 1454 1456 1458 1460 1462 1464 1466 1468 1470 1472 1474 1475 1477 1478 1480 1482 1482 1482 1483 1484 1485 1487 1487 1487 1488 1487 1488 1489 1487 1488 1488 1489 1489 1489 1489 1488
1440 1441 1442 1443 1444 1446 1448 1450 1452 1454 1455 1457 1459 1461 1463 1464 1466 1468 1470 1471 1472 1474 1475 1476 1478 1478 1479 1480 1482 1482 1483 1483 1483 1484 1484 1483 1482 1482 1483 1483 1484 1483 1483
1437 1438 1439 1440 1441 1442 1444 1446 1448 1449 1451 1452 1454 1456 1458 1460 1462 1463 1465 1466 1467 1468 1470 1471 1472 1473 1474 1475 1477 1477 1477 1477 1477 1477 1478 1478 1477 1477 1477 1477 1478 1478 1478
1435 1435 1436 1436 1437 1438 1440 1442 1444 1445 1446 1448 1449 1451 1454 1455 1457 1458 1460 1460 1461 1462 1464 1465 1466 1467 1468 1470 1471 1472 1472 1472 1472 1472 1472 1473 1473 1473 1472 1471 1472 1472 1472